Printer-friendly version

IAU Minor Planet Center

Minor Planet Center

C/2009 U1 (Garradd)

Orbital Elements

The following orbital elements are taken from MPC 67414:
C/2009 U1 (Garradd)
T 2010 July 7.819 TT                                    MPC
q   2.96357              (2000.0)            P               Q
                   Peri.    6.404       +0.348228       -0.372358
                   Node    67.196       +0.813333       -0.336274
e   1.0            Incl.   68.944       +0.466077       +0.865025
From 6 observations 2009 Oct. 17-18.
An explanation of the orbital elements is available.

These orbital elements are also available in forms suitable for loading into a number of popular planetarium-type software programs.


Ephemeris

The following ephemeris is at intervals of five days. A daily ephemeris covering the same time interval is also available.

Personalized ephemerides for this (and other) objects may be generated using the Minor Planet & Comet Ephemeris Service.

Recent magnitude estimates for this comet (as reported to the ICQ) may be available.

Date    TT    R. A. (2000) Decl.     Delta      r     Elong.  Phase   m1    m2

WARNING!

This comet gets close to the sun during the period covered in the ephemeris below. Observers are warned to be wary of observing comets near the sun. NEVER point any kind of optical instrument at the sun--instant blindness will be the probable result.

2009 10 26 04 17.38 -39 22.2 3.279 3.865 119.4 13.0 19.0 2009 10 31 04 11.68 -39 18.0 3.232 3.836 120.7 12.9 18.9 2009 11 05 04 05.54 -39 06.8 3.189 3.806 121.8 12.8 18.8 2009 11 10 03 59.05 -38 47.8 3.152 3.777 122.5 12.8 18.8 2009 11 15 03 52.31 -38 20.3 3.119 3.748 122.8 12.8 18.7 2009 11 20 03 45.45 -37 44.0 3.092 3.719 122.6 12.9 18.7 2009 11 25 03 38.60 -36 58.6 3.071 3.691 122.0 13.1 18.6 2009 11 30 03 31.89 -36 04.1 3.056 3.663 121.0 13.3 18.6 2009 12 05 03 25.43 -35 00.8 3.047 3.636 119.6 13.6 18.5 2009 12 10 03 19.34 -33 49.3 3.043 3.608 117.7 14.0 18.5 2009 12 15 03 13.69 -32 30.2 3.046 3.582 115.5 14.4 18.5 2009 12 20 03 08.57 -31 04.1 3.054 3.555 113.0 14.8 18.4 2009 12 25 03 04.03 -29 32.1 3.067 3.529 110.1 15.2 18.4 2009 12 30 03 00.11 -27 55.2 3.086 3.503 107.1 15.6 18.4 2010 01 04 02 56.80 -26 14.3 3.110 3.478 103.8 15.9 18.4 2010 01 09 02 54.13 -24 30.4 3.138 3.453 100.4 16.3 18.4 2010 01 14 02 52.07 -22 44.2 3.170 3.429 96.8 16.6 18.4 2010 01 19 02 50.62 -20 56.6 3.205 3.405 93.2 16.8 18.4 2010 01 24 02 49.74 -19 08.3 3.244 3.381 89.5 16.9 18.3 2010 01 29 02 49.42 -17 20.0 3.285 3.358 85.7 17.0 18.3 2010 02 03 02 49.61 -15 32.1 3.328 3.336 81.9 17.0 18.3 2010 02 08 02 50.29 -13 45.1 3.373 3.314 78.1 16.9 18.3 2010 02 13 02 51.43 -11 59.2 3.419 3.292 74.3 16.8 18.3 2010 02 18 02 52.99 -10 14.8 3.465 3.271 70.5 16.5 18.3 2010 02 23 02 54.95 -08 32.1 3.512 3.251 66.7 16.2 18.3 2010 02 28 02 57.27 -06 51.2 3.558 3.231 63.0 15.8 18.3 2010 03 05 02 59.93 -05 12.2 3.604 3.212 59.3 15.4 18.4 2010 03 10 03 02.90 -03 35.2 3.648 3.193 55.6 14.9 18.4 2010 03 15 03 06.17 -02 00.1 3.692 3.176 51.9 14.3 18.4 2010 03 20 03 09.71 -00 27.1 3.733 3.158 48.2 13.6 18.4 2010 03 25 03 13.50 +01 04.0 3.772 3.142 44.6 12.9 18.4 2010 03 30 03 17.51 +02 33.0 3.809 3.126 41.0 12.1 18.4 2010 04 04 03 21.75 +04 00.2 3.844 3.110 37.5 11.3 18.4 2010 04 09 03 26.18 +05 25.6 3.875 3.096 33.9 10.4 18.3 2010 04 14 03 30.80 +06 49.3 3.904 3.082 30.5 9.5 18.3 2010 04 19 03 35.60 +08 11.2 3.929 3.068 27.0 8.5 18.3 2010 04 24 03 40.55 +09 31.6 3.951 3.056 23.6 7.6 18.3 2010 04 29 03 45.66 +10 50.4 3.970 3.044 20.2 6.5 18.3 2010 05 04 03 50.90 +12 07.8 3.984 3.033 16.8 5.5 18.3 2010 05 09 03 56.28 +13 23.9 3.996 3.023 13.5 4.5 18.3 2010 05 14 04 01.79 +14 38.8 4.003 3.014 10.2 3.4 18.3 2010 05 19 04 07.41 +15 52.5 4.006 3.005 7.1 2.4 18.3 2010 05 24 04 13.13 +17 05.3 4.006 2.997 4.4 1.5 18.3 2010 05 29 04 18.96 +18 17.1 4.001 2.990 3.4 1.1 18.3 2010 06 03 04 24.87 +19 28.2 3.993 2.984 5.0 1.7 18.3 2010 06 08 04 30.88 +20 38.6 3.981 2.979 7.9 2.7 18.2 2010 06 13 04 36.97 +21 48.5 3.965 2.974 11.0 3.7 18.2 2010 06 18 04 43.13 +22 58.0 3.945 2.970 14.2 4.8 18.2 2010 06 23 04 49.36 +24 07.2 3.921 2.967 17.5 5.9 18.2 2010 06 28 04 55.65 +25 16.3 3.894 2.965 20.8 7.0 18.2 2010 07 03 05 02.00 +26 25.4 3.863 2.964 24.1 8.0 18.2 2010 07 08 05 08.40 +27 34.8 3.829 2.964 27.4 9.1 18.1 2010 07 13 05 14.84 +28 44.6 3.791 2.964 30.8 10.1 18.1 2010 07 18 05 21.32 +29 54.9 3.751 2.965 34.2 11.1 18.1 2010 07 23 05 27.82 +31 06.0 3.707 2.967 37.6 12.1 18.1 2010 07 28 05 34.35 +32 18.1 3.661 2.970 41.0 13.0 18.0 2010 08 02 05 40.88 +33 31.4 3.612 2.974 44.5 13.8 18.0 2010 08 07 05 47.43 +34 46.2 3.562 2.979 47.9 14.6 18.0 2010 08 12 05 53.96 +36 02.6 3.509 2.984 51.4 15.4 18.0 2010 08 17 06 00.48 +37 20.9 3.454 2.991 55.0 16.1 17.9 2010 08 22 06 06.96 +38 41.5 3.399 2.998 58.6 16.7 17.9 2010 08 27 06 13.41 +40 04.5 3.342 3.006 62.1 17.3 17.9 2010 09 01 06 19.79 +41 30.2 3.284 3.014 65.8 17.8 17.9 2010 09 06 06 26.10 +42 58.8 3.227 3.024 69.4 18.2 17.8 2010 09 11 06 32.32 +44 30.7 3.169 3.034 73.1 18.5 17.8 2010 09 16 06 38.40 +46 06.0 3.112 3.045 76.8 18.8 17.8 2010 09 21 06 44.34 +47 44.9 3.057 3.057 80.5 18.9 17.8 2010 09 26 06 50.11 +49 27.6 3.003 3.069 84.3 19.0 17.8 2010 10 01 06 55.65 +51 14.1 2.951 3.083 88.0 18.9 17.7 2010 10 06 07 00.94 +53 04.4 2.901 3.097 91.7 18.8 17.7 2010 10 11 07 05.90 +54 58.6 2.855 3.111 95.4 18.6 17.7 2010 10 16 07 10.46 +56 56.3 2.812 3.127 99.0 18.4 17.7 2010 10 21 07 14.56 +58 57.2 2.773 3.143 102.5 18.0 17.7 2010 10 26 07 18.08 +61 00.7 2.739 3.159 105.9 17.6 17.7 2010 10 31 07 20.89 +63 06.4 2.711 3.177 109.1 17.2 17.7 2010 11 05 07 22.81 +65 13.4 2.687 3.195 112.1 16.7 17.7 2010 11 10 07 23.61 +67 20.6 2.669 3.213 114.8 16.2 17.7 2010 11 15 07 23.01 +69 26.9 2.658 3.232 117.2 15.8 17.7 2010 11 20 07 20.62 +71 30.8 2.653 3.252 119.3 15.4 17.7 2010 11 25 07 15.94 +73 30.8 2.654 3.273 120.9 15.0 17.8 2010 11 30 07 08.29 +75 25.0 2.662 3.294 122.1 14.7 17.8

Valid HTML 4.01!